Weather History for Ithaca, NY

Change the Weather History Date:

Monday, October 14, 2013

  Actual Average Record
Temperature  
Mean Temperature 55 °F -  
Max Temperature 59 °F 60 °F 84 °F (1930)
Min Temperature 51 °F 39 °F 22 °F (1993)
Degree Days  
Heating Degree Days 10    
Growing Degree Days 5 (Base 50)    
Moisture  
Dew Point 52 °F    
Average Humidity 92    
Maximum Humidity 100    
Minimum Humidity 62    
Precipitation  
Precipitation 0.13 in - - ()
Sea Level Pressure  
Sea Level Pressure 30.33 in    
Wind  
Wind Speed 5 mph (SSW)    
Max Wind Speed 9 mph    
Max Gust Speed -    
Visibility 5 miles    
Events Rain    
Averages and records for this station are not official NWS values.
T = Trace of Precipitation, MM = Missing Value Source: NWS Daily Summary

Daily Weather History Graph

Daily Weather History Graph

Search for Another Location

Airport:

Trip Planner

Search our weather history database for the weather conditions in past years. The results will help you decide how hot, cold, wet, or windy it might be!

Date:

Astronomy

Oct. 14, 2013 Rise Set
Actual Time 7:17 AM EDT 6:24 PM EDT
Civil Twilight 6:49 AM EDT 6:53 PM EDT
Nautical Twilight 6:16 AM EDT 7:25 PM EDT
Astronomical Twilight 5:44 AM EDT 7:58 PM EDT
Moon 3:57 PM EDT (10/14) 2:26 AM EDT (10/14)
Length of Visible Light 12h 03m
Length of Day
11h 07m
Waxing Gibbous, 79% of the Moon is Illuminated
Oct 14
Waxing Gibbous
Oct 18
Full
Oct 26
Last Quarter
Nov 3
New
Nov 10
First Quarter

Hourly Weather History & Observations

Time (EDT) Temp. Dew Point Humidity Pressure Visibility Wind Dir Wind Speed Gust Speed Precip Events Conditions
12:56 AM 59.9 °F 46.9 °F 62% 30.31 in 10.0 mi SSE 9.2 mph - N/A   Overcast
1:56 AM 59.0 °F 47.8 °F 66% 30.31 in 10.0 mi South 8.1 mph - N/A   Overcast
2:56 AM 57.9 °F 47.8 °F 69% 30.31 in 10.0 mi South 9.2 mph - N/A   Overcast
3:56 AM 55.9 °F 47.8 °F 74% 30.32 in 10.0 mi South 6.9 mph - N/A   Overcast
4:56 AM 54.9 °F 47.8 °F 77% 30.33 in 10.0 mi South 4.6 mph - N/A   Overcast
5:56 AM 52.9 °F 50.0 °F 90% 30.33 in 4.0 mi South 5.8 mph - 0.00 in Rain Light Rain
6:29 AM 51.8 °F 50.0 °F 94% 30.33 in 5.0 mi SSE 4.6 mph - 0.04 in Rain Light Rain
6:56 AM 52.0 °F 50.9 °F 96% 30.34 in 4.0 mi SSE 6.9 mph - 0.05 in Rain Light Rain
7:56 AM 52.0 °F 50.9 °F 96% 30.34 in 6.0 mi SSE 8.1 mph - 0.04 in Rain Light Rain
8:56 AM 52.0 °F 50.9 °F 96% 30.35 in 8.0 mi South 4.6 mph - 0.00 in Rain Light Rain Showers
9:56 AM 52.9 °F 50.9 °F 93% 30.36 in 3.0 mi South 4.6 mph - 0.00 in Rain Light Rain
10:33 AM 53.6 °F 51.8 °F 94% 30.35 in 3.0 mi SSW 3.5 mph - 0.04 in Rain Light Rain
10:56 AM 54.0 °F 52.0 °F 93% 30.35 in 4.0 mi SSW 3.5 mph - 0.04 in   Overcast
11:56 AM 55.9 °F 52.9 °F 89% 30.35 in 5.0 mi South 4.6 mph - 0.00 in   Overcast
12:56 PM 56.8 °F 52.9 °F 87% 30.32 in 6.0 mi Calm Calm - N/A   Overcast
1:49 PM 55.4 °F 53.6 °F 94% 30.31 in 2.5 mi NNW 3.5 mph - N/A   Overcast
1:56 PM 55.9 °F 54.0 °F 93% 30.31 in 2.5 mi NNW 5.8 mph - N/A   Overcast
2:56 PM 54.9 °F 54.0 °F 97% 30.31 in 4.0 mi NNW 5.8 mph - N/A   Overcast
3:56 PM 54.9 °F 54.0 °F 97% 30.31 in 4.0 mi NW 4.6 mph - N/A   Overcast
4:56 PM 54.9 °F 52.9 °F 93% 30.31 in 4.0 mi NNW 5.8 mph - N/A   Overcast
5:56 PM 54.0 °F 52.9 °F 96% 30.32 in 3.0 mi Calm Calm - N/A   Overcast
6:56 PM 54.0 °F 52.9 °F 96% 30.33 in 6.0 mi Calm Calm - N/A   Overcast
7:56 PM 54.0 °F 52.9 °F 96% 30.33 in 6.0 mi Calm Calm - N/A   Overcast
8:01 PM 53.6 °F 53.6 °F 100% 30.32 in 6.0 mi Calm Calm - N/A   Overcast
8:17 PM 53.6 °F 53.6 °F 100% 30.32 in 4.0 mi Calm Calm - N/A   Overcast
8:56 PM 54.0 °F 52.9 °F 96% 30.33 in 6.0 mi Calm Calm - N/A   Overcast
9:56 PM 54.0 °F 52.9 °F 96% 30.33 in 5.0 mi Calm Calm - N/A   Overcast
10:09 PM 53.6 °F 53.6 °F 100% 30.32 in 5.0 mi Calm Calm - N/A   Overcast
10:21 PM 53.6 °F 51.8 °F 94% 30.32 in 3.0 mi NW 3.5 mph - N/A   Overcast
10:37 PM 53.6 °F 51.8 °F 94% 30.32 in 1.5 mi NNW 4.6 mph - N/A   Overcast
10:40 PM 53.6 °F 51.8 °F 94% 30.32 in 1.0 mi NNW 4.6 mph - N/A   Overcast
10:47 PM 53.6 °F 53.6 °F 100% 30.32 in 0.8 mi North 3.5 mph - N/A   Overcast
10:56 PM 52.9 °F 52.9 °F 100% 30.33 in 3.0 mi Calm Calm - N/A   Overcast
11:01 PM 53.6 °F 53.6 °F 100% 30.33 in 3.0 mi Calm Calm - N/A   Overcast
11:56 PM 54.0 °F 52.9 °F 96% 30.32 in 3.0 mi Calm Calm - N/A   Overcast